FW2167 Weather Reports


Display with metric or nautical units.
time (UTC)temp
F
wind
direction
speed
MPH
gust
MPH
rain 1hr
in
rain 24hr
in
rain mn
in
humidity
%
barometer
mb
20260506023704 68 94 2.0 5.0 0.00 0.01 0.01 78 1028.0
20260506023204 68 2 1.0 5.0 0.00 0.01 0.01 78 1028.0
20260506022705 68 112 4.0 6.0 0.00 0.01 0.01 77 1028.1
20260506022204 69 86 3.0 7.0 0.00 0.01 0.01 77 1028.1
20260506021205 69 65 4.0 7.0 0.00 0.01 0.01 75 1028.1
20260506020205 69 39 3.0 7.0 0.00 0.01 0.01 73 1028.3
20260506015704 69 20 4.0 9.0 0.00 0.01 0.01 73 1028.2
20260506015205 69 41 5.0 8.0 0.00 0.01 0.01 73 1028.4
20260506014704 69 22 6.0 10.0 0.00 0.01 0.01 74 1028.4
20260506014204 69 43 6.0 13.0 0.00 0.01 0.01 73 1028.4
20260506013704 69 20 5.0 12.0 0.00 0.01 0.01 74 1028.5
20260506012704 69 42 5.0 10.0 0.00 0.01 0.01 74 1028.3
20260506012205 69 16 7.0 12.0 0.00 0.01 0.01 74 1028.4
20260506011704 69 44 3.0 8.0 0.00 0.01 0.01 74 1028.6
20260506011204 68 50 5.0 8.0 0.00 0.01 0.01 79 1028.6
20260506010704 67 39 3.0 7.0 0.00 0.01 0.01 79 1028.7
20260506010204 67 54 3.0 8.0 0.00 0.01 0.01 83 1028.8
20260506005704 67 46 3.0 9.0 0.00 0.01 0.01 84 1028.7
20260506005204 67 47 7.0 15.0 0.00 0.01 0.01 80 1028.9
20260506004704 68 48 7.0 12.0 0.00 0.01 0.01 77 1028.7
20260506004204 69 36 6.0 9.0 0.00 0.01 0.01 75 1028.8
20260506003704 69 18 4.0 7.0 0.00 0.01 0.01 73 1028.7
20260506003204 70 36 3.0 8.0 0.00 0.01 0.01 73 1028.9
20260506002704 71 6 5.0 12.0 0.00 0.01 0.01 72 1028.9
20260506002205 70 42 5.0 8.0 0.00 0.01 0.01 73 1028.9
20260506001704 69 27 4.0 10.0 0.00 0.01 0.01 73 1029.1
20260506000205 69 41 5.0 9.0 0.00 0.01 0.01 74 1029.5
20260505235704 69 57 4.0 10.0 0.00 0.01 0.01 75 1029.4
20260505235204 68 81 2.0 6.0 0.00 0.01 0.01 78 1029.5
20260505234204 67 44 3.0 9.0 0.00 0.01 0.01 77 1029.7
20260505233704 68 37 5.0 7.0 0.00 0.01 0.01 75 1030.0
20260505233204 69 11 5.0 9.0 0.00 0.01 0.01 73 1030.0
20260505232704 69 339 3.0 8.0 0.00 0.01 0.01 73 1029.8
20260505232204 69 317 4.0 7.0 0.00 0.01 0.01 75 1030.0
20260505231704 69 348 3.0 5.0 0.00 0.01 0.01 75 1030.2
20260505231204 68 62 3.0 6.0 0.00 0.01 0.01 77 1030.2
20260505230704 67 3 2.0 5.0 0.00 0.01 0.01 79 1030.2
20260505230204 68 26 2.0 6.0 0.00 0.01 0.01 78 1030.3
20260505225704 67 70 3.0 5.0 0.00 0.01 0.01 83 1030.2
20260505225204 66 280 0.0 2.0 0.00 0.01 0.01 83 1030.2
20260505224705 65 179 1.0 5.0 0.00 0.01 0.01 84 1030.2
20260505224204 66 121 1.0 3.0 0.00 0.01 0.01 82 1030.3
20260505223203 65 118 2.0 7.0 0.00 0.01 0.01 86 1030.4
20260505222704 65 96 3.0 8.0 0.00 0.01 0.01 85 1030.4
20260505222204 65 92 2.0 6.0 0.00 0.01 0.01 84 1030.3
20260505221704 65 130 3.0 6.0 0.00 0.01 0.01 85 1030.5
20260505221204 64 104 2.0 5.0 0.00 0.01 0.01 87 1030.6
20260505220704 64 142 1.0 3.0 0.00 0.00 0.00 90 1030.5
20260505220203 63 57 2.0 5.0 0.00 0.00 0.00 89 1030.5
20260505215705 63 146 2.0 5.0 0.00 0.00 0.00 89 1030.5
20260505215204 63 121 2.0 5.0 0.00 0.00 0.00 90 1030.5
20260505214704 63 121 5.0 6.0 0.00 0.00 0.00 90 1030.5
20260505213704 62 112 3.0 7.0 0.00 0.00 0.00 91 1030.4
20260505212704 62 115 3.0 6.0 0.00 0.00 0.00 91 1030.5
20260505212205 62 60 2.0 5.0 0.00 0.00 0.00 92 1030.6
20260505211704 61 37 1.0 3.0 0.00 0.00 0.00 93 1030.8
20260505211204 61 110 2.0 5.0 0.00 0.00 0.00 94 1030.8
20260505210704 61 55 1.0 3.0 0.00 0.00 0.00 95 1031.0
20260505210204 60 103 0.0 3.0 0.00 0.00 0.00 95 1030.7
20260505205704 60 30 0.0 3.0 0.00 0.00 0.00 95 1030.5
20260505205204 59 148 3.0 5.0 0.00 0.00 0.00 96 1030.6
20260505204705 59 62 1.0 5.0 0.00 0.00 0.00 96 1030.7
20260505204204 59 139 2.0 3.0 0.00 0.00 0.00 96 1030.8
20260505203704 58 130 2.0 6.0 0.00 0.00 0.00 96 1030.6
20260505202704 58 137 2.0 6.0 0.00 0.00 0.00 96 1030.6
20260505202204 58 140 2.0 5.0 0.00 0.00 0.00 96 1030.3
20260505201705 58 123 2.0 3.0 0.00 0.00 0.00 96 1030.5
20260505201204 58 130 1.0 5.0 0.00 0.00 0.00 96 1030.3
20260505195704 57 131 1.0 3.0 0.00 0.00 0.00 96 1030.3
20260505195204 57 343 0.0 2.0 0.00 0.00 0.00 96 1030.3
20260505194704 57 122 1.0 5.0 0.00 0.00 0.00 96 1030.4
20260505193704 57 118 2.0 5.0 0.00 0.00 0.00 96 1030.1
20260505193204 57 134 3.0 5.0 0.00 0.00 0.00 96 1030.1
20260505192704 57 132 2.0 5.0 0.00 0.00 0.00 96 1030.1
20260505192204 57 127 1.0 3.0 0.00 0.00 0.00 96 1030.0
20260505191704 57 133 2.0 5.0 0.00 0.00 0.00 96 1030.1
20260505191205 57 123 3.0 6.0 0.00 0.00 0.00 96 1030.0
20260505190704 57 137 3.0 7.0 0.00 0.00 0.00 96 1030.0
20260505185704 57 64 0.0 3.0 0.00 0.00 0.00 96 1030.0
20260505185204 57 182 1.0 5.0 0.00 0.00 0.00 96 1029.8
20260505184704 57 150 2.0 6.0 0.00 0.00 0.00 96 1029.8
20260505183704 57 148 2.0 3.0 0.00 0.00 0.00 95 1030.0
20260505182704 57 126 1.0 3.0 0.00 0.00 0.00 95 1030.0
20260505181704 57 115 3.0 5.0 0.00 0.00 0.00 95 1030.1
20260505181204 57 111 2.0 5.0 0.00 0.00 0.00 95 1029.7
20260505180704 57 87 1.0 5.0 0.00 0.00 0.00 95 1029.6
20260505180204 57 116 1.0 5.0 0.00 0.00 0.00 95 1029.8
20260505175704 56 116 2.0 5.0 0.00 0.00 0.00 95 1029.7
20260505175204 56 121 3.0 5.0 0.00 0.00 0.00 95 1029.9
20260505174704 56 130 1.0 3.0 0.00 0.00 0.00 95 1029.8
20260505174204 56 138 0.0 2.0 0.00 0.00 0.00 95 1029.8
20260505173704 55 78 1.0 2.0 0.00 0.00 0.00 95 1030.1
20260505173204 55 25 0.0 0.0 0.00 0.00 0.00 95 1030.2
20260505172704 55 356 0.0 0.0 0.00 0.00 0.00 95 1029.9
20260505172204 55 356 0.0 0.0 0.00 0.00 0.00 95 1029.9
20260505171204 55 329 0.0 1.0 0.00 0.00 0.00 95 1030.1
20260505170704 55 139 0.0 0.0 0.00 0.00 0.00 95 1029.9
20260505165704 55 206 0.0 1.0 0.00 0.00 0.00 95 1029.8
20260505165204 55 189 0.0 1.0 0.00 0.00 0.00 95 1030.0
20260505164704 55 285 0.0 1.0 0.00 0.00 0.00 95 1029.8
20260505163704 55 110 0.0 1.0 0.00 0.00 0.00 95 1029.9
20260505163204 55 64 1.0 2.0 0.00 0.00 0.00 95 1029.9
20260505162704 55 129 2.0 2.0 0.00 0.00 0.00 95 1029.8
20260505162204 55 66 0.0 2.0 0.00 0.00 0.00 95 1030.0
20260505161704 55 302 1.0 2.0 0.00 0.00 0.00 95 1029.9
20260505161203 55 0 0.0 1.0 0.00 0.00 0.00 95 1029.8
20260505160707 55 260 1.0 1.0 0.00 0.00 0.00 95 1029.8
20260505160204 55 259 0.0 0.0 0.00 0.00 0.00 95 1029.8
20260505153203 53 269 1.0 3.0 0.00 0.00 0.00 94 1030.1
20260505152704 53 288 1.0 2.0 0.00 0.00 0.00 94 1029.9
20260505151704 54 239 2.0 2.0 0.00 0.00 0.00 93 1030.0
20260505151204 55 18 0.0 1.0 0.00 0.00 0.00 94 1030.3
20260505150705 54 77 1.0 2.0 0.00 0.00 0.00 93 1030.3
20260505150204 55 89 1.0 1.0 0.00 0.00 0.00 93 1030.2
20260505140204 57 20 1.0 1.0 0.00 0.00 0.00 93 1030.6
20260505130204 55 265 2.0 2.0 0.00 0.00 0.00 91 1031.3
20260505124204 56 149 2.0 2.0 0.00 0.00 0.00 90 1031.4
20260505123204 57 198 0.0 1.0 0.00 0.00 0.00 91 1031.3
20260505122205 56 268 1.0 2.0 0.00 0.00 0.00 92 1031.5
20260505121703 56 251 1.0 3.0 0.00 0.00 0.00 91 1031.3
20260505121204 56 237 2.0 2.0 0.00 0.00 0.00 90 1031.5
20260505120703 56 236 1.0 2.0 0.00 0.00 0.00 90 1031.2
20260505115704 57 308 0.0 0.0 0.00 0.00 0.00 90 1031.2
20260505115204 57 309 0.0 1.0 0.00 0.00 0.00 90 1031.3
20260505114704 57 318 1.0 2.0 0.00 0.00 0.00 89 1031.5
20260505114204 57 273 2.0 3.0 0.00 0.00 0.00 89 1031.4
20260505113704 58 274 2.0 2.0 0.00 0.00 0.00 88 1031.4
20260505113205 58 286 2.0 3.0 0.00 0.00 0.00 88 1031.6
20260505112704 58 292 2.0 2.0 0.00 0.00 0.00 88 1031.5
20260505112204 58 120 0.0 2.0 0.00 0.00 0.00 87 1031.5
20260505111704 58 125 1.0 2.0 0.00 0.00 0.00 87 1031.5
20260505110204 58 358 0.0 1.0 0.00 0.00 0.00 87 1031.4
20260505102205 59 141 0.0 0.0 0.00 0.00 0.00 86 1031.8
20260505101205 59 132 0.0 0.0 0.00 0.00 0.00 86 1031.8
20260505100205 58 159 2.0 2.0 0.00 0.00 0.00 88 1031.7
20260505095705 59 235 1.0 2.0 0.00 0.00 0.00 87 1032.0
20260505095204 59 259 2.0 2.0 0.00 0.00 0.00 86 1032.0
20260505094704 59 321 0.0 0.0 0.00 0.00 0.00 86 1031.8
20260505093704 59 131 0.0 1.0 0.00 0.00 0.00 87 1031.7
20260505093204 59 301 0.0 0.0 0.00 0.00 0.00 87 1031.8
20260505092705 59 301 1.0 2.0 0.00 0.00 0.00 86 1032.0
20260505092205 59 285 2.0 2.0 0.00 0.00 0.00 86 1032.0
20260505091705 59 125 0.0 0.0 0.00 0.00 0.00 86 1031.9
20260505091205 59 139 1.0 2.0 0.00 0.00 0.00 86 1032.0
20260505090705 59 129 1.0 1.0 0.00 0.00 0.00 85 1031.9
20260505090204 59 335 0.0 1.0 0.00 0.00 0.00 84 1032.1
20260505085705 60 333 1.0 2.0 0.00 0.00 0.00 83 1031.7
20260505085205 60 108 0.0 1.0 0.00 0.00 0.00 83 1031.9
20260505084705 60 41 0.0 2.0 0.00 0.00 0.00 83 1031.8
20260505084204 60 73 1.0 2.0 0.00 0.00 0.00 83 1031.7
20260505083704 60 137 0.0 0.0 0.00 0.00 0.00 83 1031.8
20260505083205 60 149 0.0 0.0 0.00 0.00 0.00 84 1031.8
20260505082705 60 326 0.0 0.0 0.00 0.00 0.00 84 1031.7
20260505082204 59 328 0.0 1.0 0.00 0.00 0.00 84 1031.9
20260505081704 59 36 0.0 1.0 0.00 0.00 0.00 85 1031.8
20260505081206 59 158 1.0 2.0 0.00 0.00 0.00 85 1031.8
20260505080705 59 150 1.0 2.0 0.00 0.00 0.00 86 1031.7
20260505080204 59 216 2.0 2.0 0.00 0.00 0.00 85 1031.8
20260505075704 59 187 1.0 3.0 0.00 0.00 0.00 84 1031.8
20260505075205 59 242 2.0 3.0 0.00 0.00 0.00 85 1031.8
20260505074204 60 216 2.0 2.0 0.00 0.00 0.00 83 1032.0
20260505073704 60 222 1.0 1.0 0.00 0.00 0.00 82 1031.8
20260505073204 60 81 0.0 0.0 0.00 0.00 0.00 83 1031.9
20260505072704 60 32 0.0 0.0 0.00 0.00 0.00 83 1031.7
20260505072205 60 32 0.0 1.0 0.00 0.00 0.00 83 1031.6
20260505071705 59 90 1.0 1.0 0.00 0.00 0.00 84 1031.6
20260505071204 59 80 0.0 2.0 0.00 0.00 0.00 85 1031.6
20260505070705 59 130 2.0 3.0 0.00 0.00 0.00 86 1031.5
20260505070205 59 142 2.0 3.0 0.00 0.00 0.00 86 1031.6
20260505065205 59 63 2.0 2.0 0.00 0.00 0.00 85 1031.7
20260505064704 59 73 1.0 2.0 0.00 0.00 0.00 85 1031.6
20260505064204 59 111 0.0 1.0 0.00 0.00 0.00 84 1031.4
20260505063705 59 114 1.0 2.0 0.00 0.00 0.00 84 1031.6
20260505062205 58 285 1.0 2.0 0.00 0.00 0.00 85 1031.5
20260505061705 58 274 2.0 3.0 0.00 0.00 0.00 84 1031.5
20260505061204 59 258 2.0 3.0 0.00 0.00 0.00 83 1031.4
20260505060705 60 267 2.0 3.0 0.00 0.00 0.00 80 1031.6
20260505060205 61 301 0.0 2.0 0.00 0.00 0.00 78 1031.3
20260505055205 61 25 1.0 2.0 0.00 0.00 0.00 78 1031.3
20260505054204 62 7 2.0 2.0 0.00 0.00 0.00 77 1031.2
20260505053705 62 352 2.0 3.0 0.00 0.00 0.00 76 1031.3
20260505053204 63 5 2.0 3.0 0.00 0.00 0.00 76 1031.2
20260505052204 63 14 2.0 6.0 0.00 0.00 0.00 74 1031.3
20260505051704 64 33 4.0 6.0 0.00 0.00 0.00 73 1031.3
20260505051205 64 10 3.0 6.0 0.00 0.00 0.00 72 1031.4
20260505050704 64 11 2.0 3.0 0.00 0.00 0.00 72 1031.2
20260505050204 64 9 2.0 3.0 0.00 0.00 0.00 72 1031.5
20260505041204 66 77 2.0 6.0 0.00 0.00 0.00 68 1031.3
20260505040704 66 11 3.0 5.0 0.00 0.00 0.00 68 1031.5
20260505040205 66 14 3.0 5.0 0.00 0.00 0.00 69 1031.6
20260505035704 66 16 3.0 6.0 0.00 0.00 0.00 69 1031.6
20260505035205 66 23 3.0 6.0 0.00 0.00 0.00 69 1031.6
20260505034704 67 0 2.0 5.0 0.00 0.00 0.00 68 1031.5
20260505034205 67 16 3.0 6.0 0.00 0.00 0.00 69 1031.6
20260505033704 67 352 4.0 6.0 0.00 0.00 0.00 68 1031.5
20260505033204 67 329 3.0 6.0 0.00 0.00 0.00 68 1031.4
20260505032704 67 335 4.0 6.0 0.00 0.00 0.00 68 1031.5
20260505032205 67 8 5.0 6.0 0.00 0.00 0.00 68 1031.7
20260505031705 67 3 2.0 6.0 0.00 0.00 0.00 67 1031.5
20260505031204 67 1 3.0 5.0 0.00 0.00 0.00 69 1031.6
20260505030704 67 3 3.0 5.0 0.00 0.00 0.00 68 1031.5
20260505030204 67 2 5.0 6.0 0.00 0.00 0.00 69 1031.7
20260505025704 67 333 4.0 7.0 0.00 0.00 0.00 70 1031.7
20260505025204 67 333 5.0 7.0 0.00 0.00 0.00 68 1031.7
20260505024704 67 334 6.0 8.0 0.00 0.00 0.00 68 1031.6
20260505024204 67 337 6.0 13.0 0.00 0.00 0.00 67 1031.4